HK4RAU-80 Weather Reports


Display with metric or nautical units.
time (UTC)temp
F
wind
direction
speed
MPH
gust
MPH
rain 1hr
in
rain 24hr
in
rain mn
in
humidity
%
barometer
mb
20260507180351 70 58 1.0 5.0 0.00 0.00 0.00 61 1013.0
20260507180045 69 58 1.0 5.0 0.00 0.00 0.00 61 1013.0
20260507175738 70 58 1.0 5.0 0.00 0.00 0.00 61 1013.0
20260507175437 69 58 1.0 5.0 0.00 0.00 0.00 61 1013.0
20260507175130 71 108 1.0 5.0 0.00 0.00 0.00 55 1013.0
20260507174827 71 108 1.0 5.0 0.00 0.00 0.00 55 1013.0
20260507174520 69 58 1.0 5.0 0.00 0.00 0.00 61 1013.0
20260507174218 71 108 1.0 5.0 0.00 0.00 0.00 55 1013.0
20260507173917 70 108 1.0 5.0 0.00 0.00 0.00 55 1013.0
20260507173615 70 108 1.0 5.0 0.00 0.00 0.00 55 1013.0
20260507173312 71 108 1.0 5.0 0.00 0.00 0.00 55 1013.0
20260507173007 70 108 1.0 5.0 0.00 0.00 0.00 55 1013.0
20260507172700 69 108 2.0 6.0 0.00 0.00 0.00 55 1015.0
20260507172355 69 108 2.0 6.0 0.00 0.00 0.00 55 1015.0
20260507172039 73 107 3.0 5.0 0.00 0.00 0.00 57 1015.0
20260507171736 73 107 3.0 5.0 0.00 0.00 0.00 57 1015.0
20260507171433 73 107 3.0 5.0 0.00 0.00 0.00 57 1015.0
20260507171130 73 107 3.0 5.0 0.00 0.00 0.00 57 1015.0
20260507170829 72 107 3.0 5.0 0.00 0.00 0.00 57 1015.0
20260507170517 73 107 3.0 5.0 0.00 0.00 0.00 57 1015.0
20260507170216 72 107 3.0 5.0 0.00 0.00 0.00 57 1015.0
20260507165910 71 107 3.0 5.0 0.00 0.00 0.00 57 1015.0
20260507165603 71 107 3.0 5.0 0.00 0.00 0.00 57 1015.0
20260507165251 72 107 3.0 5.0 0.00 0.00 0.00 57 1015.0
20260507164945 71 107 3.0 5.0 0.00 0.00 0.00 57 1015.0
20260507164638 70 107 3.0 5.0 0.00 0.00 0.00 57 1015.0
20260507164332 70 107 3.0 5.0 0.00 0.00 0.00 57 1015.0
20260507164021 69 107 3.0 6.0 0.00 0.00 0.00 57 1016.0
20260507163714 71 107 3.0 5.0 0.00 0.00 0.00 57 1016.0
20260507163412 71 107 3.0 5.0 0.00 0.00 0.00 57 1016.0
20260507163105 69 107 3.0 6.0 0.00 0.00 0.00 57 1016.0
20260507162759 71 107 3.0 5.0 0.00 0.00 0.00 57 1016.0
20260507162452 70 107 3.0 5.0 0.00 0.00 0.00 57 1016.0
20260507162151 71 107 3.0 5.0 0.00 0.00 0.00 57 1016.0
20260507161845 70 107 3.0 5.0 0.00 0.00 0.00 57 1016.0
20260507161539 69 107 3.0 6.0 0.00 0.00 0.00 57 1016.0
20260507161232 71 107 3.0 5.0 0.00 0.00 0.00 57 1016.0
20260507160920 70 107 3.0 5.0 0.00 0.00 0.00 57 1016.0
20260507160617 69 107 3.0 5.0 0.00 0.00 0.00 57 1016.0
20260507160311 69 107 3.0 5.0 0.00 0.00 0.00 57 1016.0
20260507160005 68 107 3.0 5.0 0.00 0.00 0.00 57 1016.0
20260507155658 68 107 3.0 5.0 0.00 0.00 0.00 57 1016.0
20260507155351 67 107 3.0 5.0 0.00 0.00 0.00 57 1016.0
20260507155045 67 107 3.0 5.0 0.00 0.00 0.00 57 1016.0
20260507154737 66 107 3.0 6.0 0.00 0.00 0.00 57 1016.0
20260507154430 66 107 3.0 6.0 0.00 0.00 0.00 57 1016.0
20260507154124 71 110 3.0 5.0 0.00 0.00 0.00 59 1016.0
20260507153819 70 110 3.0 5.0 0.00 0.00 0.00 59 1017.0
20260507153513 69 110 3.0 5.0 0.00 0.00 0.00 59 1017.0
20260507153207 66 107 3.0 6.0 0.00 0.00 0.00 57 1016.0
20260507152900 70 110 3.0 5.0 0.00 0.00 0.00 59 1017.0
20260507152559 69 110 3.0 5.0 0.00 0.00 0.00 59 1017.0
20260507152257 68 110 3.0 5.0 0.00 0.00 0.00 59 1017.0
20260507151951 67 110 3.0 5.0 0.00 0.00 0.00 59 1017.0
20260507151645 67 110 3.0 5.0 0.00 0.00 0.00 59 1017.0
20260507151343 66 110 3.0 6.0 0.00 0.00 0.00 59 1017.0
20260507151040 70 137 4.0 7.0 0.00 0.00 0.00 79 1017.0
20260507150734 66 110 3.0 6.0 0.00 0.00 0.00 59 1017.0
20260507150432 70 137 4.0 7.0 0.00 0.00 0.00 79 1017.0
20260507150131 70 137 4.0 7.0 0.00 0.00 0.00 79 1017.0
20260507145824 69 137 4.0 7.0 0.00 0.00 0.00 79 1017.0
20260507145518 69 137 4.0 7.0 0.00 0.00 0.00 79 1017.0
20260507145216 69 137 4.0 7.0 0.00 0.00 0.00 79 1017.0
20260507144909 68 137 4.0 7.0 0.00 0.00 0.00 79 1017.0
20260507144603 67 137 4.0 7.0 0.00 0.00 0.00 79 1017.0
20260507144302 67 137 4.0 7.0 0.00 0.00 0.00 79 1017.0
20260507143955 66 137 4.0 7.0 0.00 0.00 0.00 79 1017.0
20260507143648 67 137 4.0 7.0 0.00 0.00 0.00 79 1017.0
20260507143342 66 137 4.0 7.0 0.00 0.00 0.00 79 1017.0
20260507143036 66 137 4.0 7.0 0.00 0.00 0.00 79 1017.0
20260507142729 65 137 4.0 7.0 0.00 0.00 0.00 79 1018.0
20260507142427 64 137 4.0 7.0 0.00 0.00 0.00 79 1018.0
20260507142125 64 137 4.0 7.0 0.00 0.00 0.00 79 1018.0
20260507141824 63 137 4.0 7.0 0.00 0.00 0.00 79 1018.0
20260507141522 63 137 4.0 7.0 0.00 0.00 0.00 79 1018.0
20260507141216 62 137 4.0 7.0 0.00 0.00 0.00 79 1018.0
20260507140914 62 137 4.0 7.0 0.00 0.00 0.00 79 1018.0
20260507140608 61 137 4.0 7.0 0.00 0.00 0.00 79 1018.0
20260507140306 60 137 4.0 7.0 0.00 0.00 0.00 79 1018.0
20260507140006 60 137 4.0 7.0 0.00 0.00 0.00 79 1018.0
20260507135658 60 137 4.0 7.0 0.00 0.00 0.00 79 1018.0
20260507135352 59 137 4.0 7.0 0.00 0.00 0.00 79 1018.0
20260507135045 59 137 4.0 7.0 0.00 0.00 0.00 79 1018.0
20260507134739 59 137 4.0 7.0 0.00 0.00 0.00 79 1018.0
20260507134432 58 137 4.0 7.0 0.00 0.00 0.00 79 1018.0
20260507134131 59 137 4.0 7.0 0.00 0.00 0.00 79 1018.0
20260507133822 58 137 4.0 7.0 0.00 0.00 0.00 79 1018.0
20260507133516 58 137 4.0 7.0 0.00 0.00 0.00 79 1018.0
20260507133210 57 137 4.0 7.0 0.00 0.00 0.00 79 1018.0
20260507132903 57 137 4.0 7.0 0.00 0.00 0.00 79 1018.0
20260507132556 62 146 5.0 8.0 0.00 0.00 0.00 92 1018.0
20260507132245 58 137 4.0 7.0 0.00 0.00 0.00 79 1018.0
20260507131939 57 137 4.0 7.0 0.00 0.00 0.00 79 1018.0
20260507131632 62 146 5.0 8.0 0.00 0.00 0.00 92 1018.0
20260507131326 61 146 5.0 8.0 0.00 0.00 0.00 92 1018.0
20260507131024 61 146 5.0 8.0 0.00 0.00 0.00 92 1018.0
20260507130718 61 146 5.0 8.0 0.00 0.00 0.00 92 1018.0
20260507130416 61 146 5.0 8.0 0.00 0.00 0.00 92 1018.0
20260507130110 60 146 5.0 8.0 0.00 0.00 0.00 92 1018.0
20260507125809 61 146 5.0 8.0 0.00 0.00 0.00 92 1018.0
20260507125507 60 146 5.0 8.0 0.00 0.00 0.00 92 1018.0
20260507125201 60 146 5.0 8.0 0.00 0.00 0.00 92 1018.0
20260507124844 59 146 5.0 8.0 0.00 0.00 0.00 92 1018.0
20260507124538 58 146 5.0 8.0 0.00 0.00 0.00 92 1018.0
20260507124231 58 146 5.0 8.0 0.00 0.00 0.00 92 1018.0
20260507123925 57 146 5.0 8.0 0.00 0.00 0.00 92 1018.0
20260507123618 58 146 5.0 8.0 0.00 0.00 0.00 92 1018.0
20260507123307 57 146 5.0 8.0 0.00 0.00 0.00 92 1018.0
20260507123000 56 146 5.0 8.0 0.00 0.00 0.00 92 1018.0
20260507122653 55 146 5.0 8.0 0.00 0.00 0.00 92 1018.0
20260507122346 55 146 5.0 8.0 0.00 0.00 0.00 92 1018.0
20260507122040 54 146 5.0 8.0 0.00 0.00 0.00 92 1018.0
20260507121437 53 146 5.0 8.0 0.00 0.00 0.00 92 1018.0
20260507121130 53 146 5.0 8.0 0.00 0.00 0.00 92 1018.0
20260507120456 57 146 5.0 8.0 0.00 0.00 0.00 92 1018.0
20260507120154 56 146 5.0 8.0 0.00 0.00 0.00 92 1018.0
20260507115845 57 146 5.0 8.0 0.00 0.00 0.00 92 1018.0
20260507115538 56 146 5.0 8.0 0.00 0.00 0.00 92 1018.0
20260507114911 55 146 5.0 8.0 0.00 0.00 0.00 92 1018.0
20260507114610 57 147 5.0 8.0 0.00 0.00 0.00 90 1018.0
20260507114308 56 147 5.0 8.0 0.00 0.00 0.00 90 1018.0
20260507114002 55 147 6.0 9.0 0.00 0.00 0.00 90 1018.0
20260507113655 55 147 6.0 9.0 0.00 0.00 0.00 90 1018.0
20260507113354 55 147 6.0 9.0 0.00 0.00 0.00 90 1018.0
20260507113047 55 147 6.0 9.0 0.00 0.00 0.00 90 1018.0
20260507112741 55 148 6.0 9.0 0.00 0.00 0.00 94 1019.0
20260507112439 55 148 6.0 9.0 0.00 0.00 0.00 94 1019.0
20260507112132 55 148 6.0 9.0 0.00 0.00 0.00 94 1019.0
20260507111835 55 148 6.0 9.0 0.00 0.00 0.00 94 1019.0
20260507111524 55 148 6.0 9.0 0.00 0.00 0.00 94 1019.0
20260507111221 55 148 6.0 9.0 0.00 0.00 0.00 94 1019.0
20260507110915 55 148 6.0 9.0 0.00 0.00 0.00 94 1019.0
20260507110522 55 148 6.0 9.0 0.00 0.00 0.00 94 1019.0
20260507110220 55 148 6.0 9.0 0.00 0.00 0.00 94 1019.0
20260507105914 55 148 6.0 9.0 0.00 0.00 0.00 94 1019.0
20260507105607 55 148 6.0 9.0 0.00 0.00 0.00 94 1019.0
20260507105300 55 148 6.0 9.0 0.00 0.00 0.00 94 1019.0
20260507104647 55 148 6.0 9.0 0.00 0.00 0.00 94 1019.0
20260507104346 55 148 6.0 9.0 0.00 0.00 0.00 94 1019.0
20260507104034 55 148 6.0 9.0 0.00 0.00 0.00 94 1019.0
20260507103733 55 146 6.0 8.0 0.00 0.00 0.00 94 1018.0
20260507103426 55 146 6.0 8.0 0.00 0.00 0.00 94 1018.0
20260507103115 55 146 6.0 8.0 0.00 0.00 0.00 94 1018.0
20260507102808 55 146 6.0 8.0 0.00 0.00 0.00 94 1018.0
20260507102456 55 146 6.0 8.0 0.00 0.00 0.00 94 1018.0
20260507102155 55 146 6.0 8.0 0.00 0.00 0.00 94 1018.0
20260507101848 55 146 6.0 8.0 0.00 0.00 0.00 94 1018.0
20260507101537 55 146 6.0 8.0 0.00 0.00 0.00 94 1018.0
20260507101225 55 146 6.0 8.0 0.00 0.00 0.00 94 1018.0
20260507100919 55 146 6.0 8.0 0.00 0.00 0.00 94 1018.0
20260507100612 55 146 6.0 8.0 0.00 0.00 0.00 94 1018.0
20260507100311 55 146 6.0 8.0 0.00 0.00 0.00 94 1018.0
20260507100002 55 146 6.0 8.0 0.00 0.00 0.00 94 1018.0
20260507095659 55 146 6.0 8.0 0.00 0.00 0.00 94 1018.0
20260507095347 55 146 6.0 8.0 0.00 0.00 0.00 94 1018.0
20260507094734 55 146 6.0 8.0 0.00 0.00 0.00 94 1018.0
20260507094425 55 146 6.0 8.0 0.00 0.00 0.00 94 1018.0
20260507094118 55 146 6.0 8.0 0.00 0.00 0.00 94 1018.0
20260507093810 56 144 5.0 8.0 0.00 0.00 0.00 94 1017.0
20260507093509 55 146 6.0 8.0 0.00 0.00 0.00 94 1018.0
20260507093202 56 144 5.0 8.0 0.00 0.00 0.00 94 1017.0
20260507092856 56 144 5.0 8.0 0.00 0.00 0.00 94 1017.0
20260507092555 55 144 5.0 8.0 0.00 0.00 0.00 94 1017.0
20260507092248 56 144 5.0 8.0 0.00 0.00 0.00 94 1017.0
20260507091946 56 144 5.0 8.0 0.00 0.00 0.00 94 1017.0
20260507091639 55 144 5.0 8.0 0.00 0.00 0.00 94 1017.0
20260507091333 56 144 5.0 8.0 0.00 0.00 0.00 94 1017.0
20260507091026 55 144 5.0 8.0 0.00 0.00 0.00 94 1017.0
20260507090720 57 144 5.0 8.0 0.00 0.00 0.00 94 1017.0
20260507090413 57 144 5.0 8.0 0.00 0.00 0.00 94 1017.0
20260507090111 57 144 5.0 8.0 0.00 0.00 0.00 94 1017.0
20260507085808 57 144 5.0 8.0 0.00 0.00 0.00 94 1017.0
20260507085507 57 144 5.0 8.0 0.00 0.00 0.00 94 1017.0
20260507085204 57 144 5.0 8.0 0.00 0.00 0.00 94 1017.0
20260507084858 57 144 5.0 8.0 0.00 0.00 0.00 94 1017.0
20260507084551 57 144 5.0 8.0 0.00 0.00 0.00 94 1017.0
20260507084250 57 144 5.0 8.0 0.00 0.00 0.00 94 1017.0
20260507083948 57 144 5.0 8.0 0.00 0.00 0.00 94 1017.0
20260507083647 57 144 5.0 8.0 0.00 0.00 0.00 94 1017.0
20260507083340 57 144 5.0 8.0 0.00 0.00 0.00 94 1017.0
20260507083033 57 144 5.0 8.0 0.00 0.00 0.00 94 1017.0
20260507082726 58 147 5.0 8.0 0.00 0.00 0.00 92 1017.0
20260507082424 58 147 5.0 8.0 0.00 0.00 0.00 92 1017.0
20260507082123 58 147 5.0 8.0 0.00 0.00 0.00 92 1017.0
20260507081816 57 147 5.0 8.0 0.00 0.00 0.00 92 1017.0
20260507081508 57 147 5.0 8.0 0.00 0.00 0.00 92 1017.0
20260507081207 57 147 5.0 8.0 0.00 0.00 0.00 92 1017.0
20260507080901 56 147 5.0 8.0 0.00 0.00 0.00 92 1017.0
20260507080554 55 147 5.0 8.0 0.00 0.00 0.00 92 1017.0
20260507080248 55 147 5.0 8.0 0.00 0.00 0.00 92 1017.0
20260507075941 55 147 5.0 8.0 0.00 0.00 0.00 92 1017.0
20260507075640 58 147 5.0 8.0 0.00 0.00 0.00 93 1017.0
20260507075339 58 147 5.0 8.0 0.00 0.00 0.00 93 1017.0
20260507075037 58 147 5.0 8.0 0.00 0.00 0.00 93 1017.0
20260507074731 58 147 5.0 8.0 0.00 0.00 0.00 93 1017.0
20260507074424 57 147 5.0 8.0 0.00 0.00 0.00 93 1017.0
20260507074118 57 147 5.0 8.0 0.00 0.00 0.00 93 1017.0
20260507073811 56 147 5.0 8.0 0.00 0.00 0.00 93 1017.0
20260507073505 57 147 5.0 8.0 0.00 0.00 0.00 93 1017.0
20260507073203 56 147 5.0 8.0 0.00 0.00 0.00 93 1017.0
20260507072857 55 147 5.0 8.0 0.00 0.00 0.00 93 1018.0
20260507072555 55 147 5.0 8.0 0.00 0.00 0.00 93 1018.0
20260507072244 55 147 5.0 8.0 0.00 0.00 0.00 93 1018.0
20260507071927 55 147 5.0 8.0 0.00 0.00 0.00 93 1018.0
20260507071616 58 149 5.0 8.0 0.00 0.00 0.00 94 1018.0
20260507071314 58 149 5.0 8.0 0.00 0.00 0.00 94 1018.0
20260507071008 58 149 5.0 8.0 0.00 0.00 0.00 94 1018.0
20260507070701 57 149 5.0 8.0 0.00 0.00 0.00 94 1018.0
20260507070355 57 149 5.0 8.0 0.00 0.00 0.00 94 1018.0
20260507070053 56 149 5.0 8.0 0.00 0.00 0.00 94 1018.0
20260507065747 56 149 5.0 8.0 0.00 0.00 0.00 94 1018.0
20260507065435 56 149 5.0 8.0 0.00 0.00 0.00 94 1018.0
20260507065129 55 149 5.0 8.0 0.00 0.00 0.00 94 1018.0
20260507064822 55 149 5.0 8.0 0.00 0.00 0.00 94 1018.0
20260507064521 55 149 5.0 8.0 0.00 0.00 0.00 94 1018.0
20260507064214 54 149 5.0 8.0 0.00 0.00 0.00 94 1018.0
20260507063908 54 149 5.0 8.0 0.00 0.00 0.00 94 1018.0
20260507063604 53 149 5.0 8.0 0.00 0.00 0.00 94 1019.0
20260507063302 53 149 5.0 8.0 0.00 0.00 0.00 94 1019.0
20260507062956 53 149 5.0 8.0 0.00 0.00 0.00 94 1019.0
20260507062649 53 149 5.0 8.0 0.00 0.00 0.00 94 1019.0
20260507062347 52 149 5.0 8.0 0.00 0.00 0.00 94 1019.0
20260507062040 51 149 5.0 8.0 0.00 0.00 0.00 94 1019.0
20260507061739 59 149 5.0 8.0 0.00 0.00 0.00 94 1019.0
20260507061437 51 149 5.0 8.0 0.00 0.00 0.00 94 1019.0
20260507061131 59 149 5.0 8.0 0.00 0.00 0.00 94 1019.0
20260507060823 51 149 5.0 8.0 0.00 0.00 0.00 94 1019.0
20260507060521 59 149 5.0 8.0 0.00 0.00 0.00 94 1019.0
20260507060220 59 149 5.0 8.0 0.00 0.00 0.00 94 1019.0
20260507055919 59 149 5.0 8.0 0.00 0.00 0.00 94 1019.0
20260507055617 59 149 5.0 8.0 0.00 0.00 0.00 94 1019.0
20260507055311 59 149 5.0 8.0 0.00 0.00 0.00 94 1019.0
20260507055004 59 149 5.0 8.0 0.00 0.00 0.00 94 1019.0
20260507054658 59 149 5.0 8.0 0.00 0.00 0.00 94 1019.0
20260507054027 59 149 5.0 8.0 0.00 0.00 0.00 94 1019.0
20260507053719 58 141 5.0 10.0 0.00 0.00 0.00 93 1019.0
20260507053058 58 141 5.0 10.0 0.00 0.00 0.00 93 1019.0
20260507052757 58 141 5.0 10.0 0.00 0.00 0.00 93 1019.0
20260507052450 57 141 5.0 10.0 0.00 0.00 0.00 93 1019.0
20260507052143 58 141 5.0 10.0 0.00 0.00 0.00 93 1019.0
20260507051836 58 141 5.0 10.0 0.00 0.00 0.00 93 1019.0
20260507051530 57 141 5.0 10.0 0.00 0.00 0.00 93 1019.0
20260507050551 56 141 5.0 10.0 0.00 0.00 0.00 93 1019.0
20260507050227 56 141 5.0 10.0 0.00 0.00 0.00 93 1019.0
20260507045915 56 141 5.0 10.0 0.00 0.00 0.00 93 1019.0
20260507044923 55 141 5.0 10.0 0.00 0.00 0.00 93 1019.0
20260507044611 54 141 5.0 10.0 0.00 0.00 0.00 93 1019.0
20260507044300 54 141 5.0 10.0 0.00 0.00 0.00 93 1019.0
20260507043953 54 141 5.0 10.0 0.00 0.00 0.00 93 1019.0
20260507043651 54 141 5.0 10.0 0.00 0.00 0.00 93 1019.0
20260507043345 53 141 6.0 10.0 0.00 0.00 0.00 93 1020.0
20260507043043 54 141 5.0 10.0 0.00 0.00 0.00 93 1019.0
20260507042742 53 141 6.0 10.0 0.00 0.00 0.00 93 1020.0
20260507042134 58 141 5.0 10.0 0.00 0.00 0.00 93 1020.0
20260507041830 57 141 6.0 10.0 0.00 0.00 0.00 93 1020.0
20260507041519 53 141 6.0 10.0 0.00 0.00 0.00 93 1020.0
20260507041208 58 141 5.0 10.0 0.00 0.00 0.00 93 1020.0
20260507040906 57 141 6.0 10.0 0.00 0.00 0.00 93 1020.0
20260507040604 57 141 6.0 10.0 0.00 0.00 0.00 93 1020.0
20260507040258 58 141 5.0 10.0 0.00 0.00 0.00 93 1020.0
20260507035946 57 141 6.0 10.0 0.00 0.00 0.00 93 1020.0
20260507035640 58 141 5.0 10.0 0.00 0.00 0.00 93 1020.0
20260507035338 57 141 6.0 10.0 0.00 0.00 0.00 93 1020.0
20260507035032 58 140 5.0 10.0 0.00 0.00 0.00 92 1020.0
20260507034730 58 140 5.0 10.0 0.00 0.00 0.00 92 1020.0
20260507034429 58 140 5.0 10.0 0.00 0.00 0.00 92 1020.0
20260507034128 58 140 5.0 10.0 0.00 0.00 0.00 92 1020.0
20260507033821 57 140 6.0 10.0 0.00 0.00 0.00 92 1020.0
20260507033510 57 140 6.0 10.0 0.00 0.00 0.00 92 1020.0
20260507033205 57 140 6.0 10.0 0.00 0.00 0.00 92 1020.0
20260507032904 58 140 5.0 10.0 0.00 0.00 0.00 92 1020.0
20260507032602 57 140 5.0 10.0 0.00 0.00 0.00 92 1020.0
20260507032301 57 140 5.0 10.0 0.00 0.00 0.00 92 1020.0
20260507031954 58 140 5.0 10.0 0.00 0.00 0.00 92 1020.0
20260507031647 57 140 5.0 10.0 0.00 0.00 0.00 92 1020.0
20260507031341 56 140 5.0 10.0 0.00 0.00 0.00 92 1020.0
20260507031035 56 140 5.0 10.0 0.00 0.00 0.00 92 1020.0
20260507030733 56 140 5.0 10.0 0.00 0.00 0.00 92 1020.0
20260507030432 55 140 6.0 10.0 0.00 0.00 0.00 92 1020.0
20260507030130 55 140 6.0 10.0 0.00 0.00 0.00 92 1020.0
20260507025828 58 144 5.0 8.0 0.00 0.00 0.00 94 1020.0
20260507025525 58 144 5.0 8.0 0.00 0.00 0.00 94 1020.0
20260507025216 57 144 5.0 8.0 0.00 0.00 0.00 94 1020.0
20260507024915 58 144 5.0 8.0 0.00 0.00 0.00 94 1020.0
20260507024613 57 144 5.0 8.0 0.00 0.00 0.00 94 1020.0
20260507024307 57 144 5.0 8.0 0.00 0.00 0.00 94 1020.0
20260507024005 56 144 5.0 8.0 0.00 0.00 0.00 94 1020.0
20260507023703 55 144 6.0 9.0 0.00 0.00 0.00 94 1020.0
20260507023400 56 144 5.0 8.0 0.00 0.00 0.00 94 1020.0
20260507023059 56 144 5.0 8.0 0.00 0.00 0.00 94 1020.0
20260507022752 55 144 6.0 9.0 0.00 0.00 0.00 94 1020.0